RH
5 4 4 4 5 5 5 6 6 6 6 6 7 6 7 7 7 8 8 8 8 8 9 9 9 9 9 10 10 11 11 11 12 13 14 15 15 16 17 17 17 16 12 12 17 20 21 25 30 33 39 43 44 47 52 57 62 66 69 71 73 74 75
5 5 4 5 5 6 6 7 7 7 7 8 8 8 8 9 9 9 9 9 9 9 9 9 10 10 10 11 11 12 12 12 13 14 15 17 18 18 19 20 19 19 17 14 16 20 22 27 34 37 41 47 49 50 53 57 64 71 74 76 77 78 79
5 5 5 6 7 7 8 8 8 9 9 9 10 10 10 10 10 10 10 10 10 10 10 10 11 11 11 12 12 12 13 13 14 15 16 17 19 19 20 21 21 21 20 18 17 20 22 27 34 39 45 51 54 55 56 58 64 71 77 80 82 83 85
6 6 7 7 8 8 9 10 10 10 10 11 11 11 11 10 10 10 10 10 11 11 11 12 12 12 12 12 13 13 13 14 14 15 15 16 18 19 20 21 23 23 23 22 20 21 23 26 31 39 47 54 57 59 62 63 65 71 78 83 85 86 90
7 7 8 8 9 10 11 11 11 12 12 12 12 11 11 10 10 11 11 12 12 12 13 13 13 13 13 13 13 13 13 13 14 14 14 15 16 17 18 20 22 23 23 24 23 22 23 25 29 35 45 56 60 60 65 70 73 76 80 86 90 90 92
8 8 9 10 11 12 12 13 13 13 13 13 12 12 11 11 12 12 13 13 13 13 13 14 14 14 14 14 14 14 14 13 14 13 13 14 14 14 16 17 18 20 21 22 23 24 24 24 27 30 37 51 60 61 65 71 78 84 86 88 94 96 95
9 10 10 11 12 13 14 14 14 14 14 13 13 12 12 13 13 13 13 14 14 14 15 15 15 15 15 15 15 15 15 14 14 14 13 14 14 14 14 14 15 16 16 18 19 21 23 24 26 26 28 37 49 59 66 70 76 84 90 90 92 96 98
10 11 12 13 13 14 15 15 16 15 14 13 13 13 13 14 14 14 14 15 15 16 16 16 16 16 16 16 16 16 15 15 15 15 14 14 14 14 13 13 13 13 13 14 15 16 18 20 23 25 26 28 33 43 56 67 74 82 92 95 93 94 97
12 13 13 14 15 16 17 17 16 15 14 14 14 14 15 15 15 16 16 17 17 17 18 18 18 18 17 17 17 17 16 16 16 15 15 15 15 15 14 14 14 13 13 13 13 14 14 16 17 20 24 26 28 31 37 50 63 74 85 95 97 96 97
13 14 14 16 17 18 18 16 16 15 15 15 15 16 17 17 18 18 18 19 19 19 19 19 19 19 19 18 18 18 17 17 17 16 16 16 16 15 15 15 14 14 13 13 13 13 13 14 14 16 18 21 25 28 29 33 43 54 67 81 92 97 99
15 15 16 17 18 18 17 16 16 16 16 17 18 19 19 19 20 20 19 19 19 19 19 20 20 20 20 20 19 19 19 18 18 18 17 17 17 16 16 15 15 14 13 13 13 13 13 14 14 15 16 17 19 23 27 29 31 36 45 56 69 83 95
17 18 18 18 18 18 17 18 18 19 20 20 21 21 20 19 19 18 18 18 18 18 18 19 19 19 20 21 21 21 20 20 20 19 19 18 18 17 17 16 15 15 14 13 13 13 13 13 14 14 15 16 17 18 21 25 28 30 33 38 45 57 72
19 19 19 19 18 19 19 20 21 22 22 22 21 20 19 18 18 17 17 18 18 18 18 18 19 20 20 21 22 22 22 22 21 21 20 20 19 18 18 16 15 15 14 13 13 13 12 13 13 13 14 15 17 16 16 19 23 27 30 32 35 38 46
21 20 20 20 20 21 22 23 24 23 22 21 20 20 19 18 19 18 18 19 19 19 20 21 21 21 21 22 22 23 24 24 24 23 22 22 21 19 18 17 16 15 15 14 13 13 13 13 13 13 13 14 15 15 16 16 18 21 25 28 31 32 34
21 21 21 22 23 24 24 24 23 21 20 20 20 20 19 19 19 19 19 19 20 21 22 23 23 23 23 23 24 25 25 25 25 25 24 23 22 21 19 18 18 17 16 16 15 15 14 14 14 15 14 15 15 15 15 15 16 18 20 22 25 27 30
22 22 23 24 25 24 23 23 22 21 21 21 21 21 20 19 19 18 19 20 22 23 24 24 24 24 25 25 26 27 27 27 27 26 25 24 23 22 21 20 21 21 20 19 19 18 17 16 17 17 17 17 17 16 15 15 16 18 18 19 20 21 24
24 25 25 26 25 23 23 23 23 23 23 22 22 22 20 20 19 19 20 21 23 24 24 25 26 27 28 29 29 29 29 29 28 27 26 25 24 23 22 22 24 26 25 24 23 22 22 21 21 21 22 22 21 19 17 16 16 18 18 18 17 18 20
26 27 26 26 25 24 24 24 25 25 25 24 24 22 20 20 19 19 20 21 22 24 25 26 27 29 30 31 31 31 30 29 29 28 27 26 25 24 24 24 27 29 29 29 28 27 27 28 27 27 26 28 28 25 22 20 19 20 20 19 18 17 18
27 27 27 26 25 25 25 25 26 27 26 25 24 22 21 20 19 19 20 20 22 23 25 27 29 30 32 32 32 32 31 30 29 28 27 27 26 26 26 27 29 30 31 31 31 30 31 32 33 34 34 34 34 33 30 26 24 24 24 23 22 20 19
28 27 27 26 26 26 27 27 27 27 26 25 24 23 21 20 19 20 20 21 23 24 25 28 31 32 33 33 33 32 31 29 28 27 28 29 29 29 29 29 30 29 30 30 30 29 31 33 36 39 41 41 40 39 38 35 32 31 30 29 28 28 26
28 27 27 27 28 28 30 29 28 27 26 25 25 24 22 21 21 21 22 22 24 25 27 29 32 33 34 33 32 31 30 28 28 28 29 31 32 33 32 31 30 29 28 27 27 27 28 30 34 40 44 45 45 45 45 43 41 39 38 38 37 36 35
28 28 27 28 29 30 31 30 28 27 27 27 26 24 22 21 22 23 25 25 25 27 29 31 33 34 34 33 32 30 29 29 30 32 34 36 37 36 35 32 30 28 26 25 25 25 26 28 33 39 43 46 48 50 49 48 47 47 45 44 43 42 42
29 28 27 28 30 31 30 29 28 28 28 27 26 24 23 24 25 26 28 28 29 31 33 34 34 34 33 32 30 29 29 30 32 36 40 42 41 38 35 33 30 28 27 26 25 25 27 32 39 44 47 50 52 52 52 51 52 53 51 49 47 46 46
30 29 28 28 28 28 28 28 28 27 28 27 25 24 25 26 27 29 32 33 34 35 36 35 34 33 32 30 29 29 30 32 37 43 46 45 42 39 35 32 31 31 31 31 31 33 36 42 50 53 53 55 56 56 57 58 58 58 56 56 55 54 52
31 30 29 28 26 26 26 27 26 26 27 27 26 25 27 28 30 32 35 37 37 37 36 35 34 32 30 28 28 28 30 36 45 50 50 46 42 37 35 35 36 38 40 40 42 47 50 56 63 64 62 62 63 65 68 69 68 66 65 65 64 63 62
32 31 30 28 26 25 24 24 25 25 26 27 27 28 31 32 34 36 38 39 38 38 36 34 32 30 28 26 27 30 36 45 53 55 50 45 40 37 39 42 45 47 49 52 56 61 64 68 74 76 75 75 76 77 80 81 79 77 77 77 74 71 71
32 32 30 27 25 25 23 23 24 26 27 28 29 31 34 36 38 40 41 41 40 38 35 33 30 28 26 27 31 39 49 57 58 54 48 43 42 43 47 52 55 56 57 61 66 69 72 76 82 84 85 86 85 86 89 89 84 82 85 86 83 79 79
32 32 31 27 25 25 24 23 26 29 29 28 29 31 33 37 41 43 43 42 39 36 33 31 28 26 28 32 39 49 61 64 58 50 44 42 46 52 58 62 63 64 66 69 71 72 74 78 82 84 86 87 87 88 93 92 87 85 88 90 87 85 86
32 31 31 29 28 29 27 24 26 30 29 28 30 32 34 37 41 43 42 39 35 32 30 28 27 29 36 46 55 63 66 62 52 45 42 45 51 59 65 69 71 71 73 75 74 72 74 77 79 81 84 85 86 88 91 90 87 86 87 87 87 87 89
32 31 32 32 31 32 31 28 27 29 30 31 33 34 36 38 39 40 37 33 30 28 26 26 27 32 44 60 72 73 65 53 43 38 40 48 56 62 67 72 75 76 77 76 75 74 75 76 77 78 81 83 84 86 88 88 85 84 84 84 85 85 88
33 33 35 35 33 33 32 31 30 31 32 33 34 34 35 36 36 35 33 32 32 29 28 32 36 39 50 68 77 69 54 42 36 34 38 46 56 63 68 72 75 76 75 73 72 74 74 74 73 74 76 79 80 83 85 86 85 83 83 83 83 83 85
32 33 35 36 35 34 33 33 33 33 33 33 33 33 33 34 35 35 36 39 41 39 39 46 50 51 60 73 71 56 43 38 38 39 41 45 50 58 66 71 73 72 69 67 67 66 65 64 65 66 69 72 75 77 81 83 84 83 82 82 82 82 84
31 33 33 33 35 36 36 36 34 32 32 32 32 33 35 36 38 41 45 50 53 54 55 59 61 64 70 70 59 46 41 44 46 48 49 48 48 52 59 64 65 64 62 60 59 57 55 54 54 55 56 59 62 66 70 73 77 79 79 79 80 80 82
29 32 33 33 34 36 36 35 33 32 33 33 34 36 39 41 44 50 57 61 63 63 63 65 69 73 71 61 49 44 46 48 48 50 52 52 51 51 53 56 57 56 55 55 54 52 50 50 50 49 49 49 49 52 55 58 62 66 68 70 72 73 75
27 30 32 32 32 33 34 34 34 34 35 36 38 42 47 51 56 60 64 67 69 69 70 73 75 71 60 48 44 45 44 42 41 43 47 50 52 51 50 51 52 52 53 54 54 52 51 51 50 49 48 46 45 44 44 46 48 51 53 55 57 59 61
26 28 29 29 30 32 34 35 36 37 38 41 46 53 59 63 66 68 68 68 70 75 79 78 70 58 47 43 43 41 37 35 35 36 39 44 48 51 51 51 52 54 56 57 56 55 53 51 48 47 45 42 40 40 40 40 41 42 42 44 45 47 48
Wind_Speed
41 40 38 37 36 35 35 35 35 35 34 34 34 34 34 35 35 35 36 37 37 38 39 40 41 41 42 43 43 44 44 44 45 45 45 46 46 46 47 48 50 52 52 49 49 49 48 48 48 47 47 46 46 45 45 45 46 46 47 47 46 47 48
40 39 38 37 36 35 35 35 35 35 34 34 34 34 35 35 35 36 36 37 38 39 40 41 41 42 43 44 44 45 45 46 46 46 46 46 47 47 47 48 50 51 52 51 49 49 49 48 48 48 48 48 48 47 46 45 44 44 44 44 44 44 44
39 38 37 36 35 35 35 35 35 34 34 34 34 34 35 35 36 36 37 38 39 40 41 41 42 43 43 44 45 46 46 47 47 47 47 47 48 48 48 49 50 51 52 52 50 49 49 48 48 48 48 48 48 48 48 47 45 43 42 41 41 41 41
38 37 36 36 35 35 35 35 35 35 34 34 34 35 36 36 37 38 38 39 40 41 41 42 42 43 44 45 45 46 46 47 48 48 49 49 49 50 50 50 50 51 52 52 51 49 49 49 48 48 48 48 48 48 48 48 46 45 42 39 38 38 38
37 36 36 35 35 35 35 35 35 35 35 35 36 36 36 37 38 39 40 40 41 42 42 43 43 44 45 45 46 46 47 48 48 49 50 50 50 51 51 51 51 51 52 52 52 51 50 49 49 49 48 48 48 47 47 47 46 46 44 41 38 37 37
36 36 35 35 35 35 35 35 35 35 36 36 37 37 38 38 39 39 40 41 42 42 43 44 44 45 46 47 47 48 48 48 49 50 50 51 51 52 52 52 52 52 53 53 53 52 51 50 49 49 48 48 48 48 47 46 45 44 44 43 41 39 38
36 36 36 35 35 35 35 36 36 36 37 37 38 39 39 40 40 41 41 42 42 43 44 44 45 46 47 48 48 49 50 50 50 51 51 52 52 52 52 52 53 53 53 54 53 53 52 51 50 49 49 48 48 48 47 47 46 44 43 42 42 40 40
36 36 36 35 36 36 36 36 36 37 38 38 39 40 40 41 42 42 43 43 43 44 45 45 46 47 48 49 50 51 51 51 52 52 52 52 53 53 53 53 53 53 53 54 54 53 53 52 50 50 49 49 48 48 47 47 47 46 44 42 42 41 41
36 36 36 36 36 36 36 37 37 38 39 40 40 41 42 43 43 44 44 44 44 44 45 46 47 48 49 50 51 52 52 53 53 53 54 54 53 53 53 53 53 53 53 53 53 53 52 52 51 50 50 49 49 48 48 47 47 47 46 44 42 42 41
36 36 36 36 36 36 37 37 38 39 40 41 42 43 44 44 45 45 45 45 45 45 45 46 47 48 50 51 52 53 54 54 54 55 55 55 55 54 54 54 53 53 53 53 53 52 52 51 51 50 49 49 49 48 48 47 47 47 47 46 44 43 42
36 37 36 37 37 37 37 38 39 41 42 43 44 45 46 46 46 46 47 47 48 48 48 48 48 49 50 51 53 54 55 56 56 56 56 56 56 55 55 55 54 54 53 53 53 52 51 51 50 49 49 49 48 48 47 47 48 48 47 47 46 44 42
36 37 37 37 37 37 38 39 40 42 43 44 45 46 47 47 48 48 48 49 50 50 50 51 51 51 51 52 53 54 55 56 56 57 57 57 56 56 55 55 55 54 54 53 53 52 51 50 49 49 49 48 47 48 47 47 47 47 47 47 46 45 43
36 37 37 37 38 38 39 40 41 43 44 45 46 47 48 49 49 50 50 51 52 52 53 53 53 53 53 53 53 54 55 56 56 57 57 57 57 56 55 55 54 54 54 53 53 53 52 50 49 49 48 47 47 48 47 47 46 46 46 46 46 45 43
36 37 37 37 38 39 40 41 43 44 44 46 47 48 49 50 50 51 52 53 53 54 54 54 54 54 54 54 54 54 54 55 56 56 57 57 56 56 55 54 53 53 53 53 53 53 52 51 50 49 48 47 47 47 47 47 45 44 44 45 45 45 44
36 36 37 38 39 40 41 42 44 45 45 46 47 49 50 50 51 53 53 54 55 55 55 55 55 55 55 55 55 55 55 55 55 56 56 56 55 55 54 53 52 52 51 52 52 52 53 52 51 50 49 47 47 46 47 47 45 44 44 45 45 45 44
37 37 38 40 41 42 43 44 45 46 47 48 49 50 51 52 53 54 55 55 55 55 55 55 55 56 56 55 55 55 55 55 55 55 55 55 54 53 52 51 51 51 51 50 51 51 52 52 52 50 49 48 47 47 47 46 45 44 44 44 45 45 44
38 39 40 41 42 43 44 45 46 47 48 49 50 51 52 54 54 55 56 55 55 55 55 55 55 55 55 55 55 55 55 55 55 55 54 54 53 52 51 50 49 49 49 49 50 50 51 51 51 51 50 49 48 48 47 47 46 45 44 44 45 45 44
39 41 42 43 44 45 46 47 48 49 50 50 51 53 54 55 56 56 56 56 56 55 55 55 55 55 55 55 54 54 54 54 54 54 53 53 52 51 50 49 48 47 47 48 48 49 49 50 50 50 50 49 48 48 48 48 47 46 45 44 44 44 44
41 42 44 45 46 47 48 49 49 50 51 52 53 54 56 57 58 58 58 57 57 55 55 54 54 54 55 54 54 54 54 54 54 53 53 52 51 50 49 48 47 47 47 47 47 47 48 49 49 49 49 49 49 48 48 48 48 47 46 45 44 44 44
43 44 45 47 48 49 50 51 51 52 53 54 54 56 57 58 59 59 58 58 57 55 54 53 53 53 54 54 53 53 53 53 53 52 51 51 50 49 48 48 47 47 46 46 46 46 47 47 48 48 48 49 49 48 48 48 48 48 47 46 45 43 43
46 47 47 48 49 50 51 52 53 53 54 54 55 56 57 58 59 59 59 57 56 55 54 53 52 52 52 52 52 52 52 52 51 51 50 49 49 48 48 48 48 47 46 45 45 45 46 47 47 47 47 48 49 48 47 47 47 47 47 47 46 44 43
48 49 49 50 50 51 51 52 53 54 54 55 56 57 58 58 59 58 58 57 56 54 54 53 52 51 51 51 51 50 50 50 50 49 48 48 47 47 47 47 47 46 45 44 44 44 44 45 45 46 46 47 47 47 47 47 46 46 46 46 46 45 44
50 50 51 51 51 51 52 53 53 54 54 55 56 57 58 58 58 57 57 56 55 54 53 51 51 50 50 50 50 50 49 49 48 48 47 47 46 46 46 46 45 44 44 44 43 42 42 41 42 42 43 44 45 45 46 46 45 45 45 45 45 45 44
51 52 53 53 52 52 52 53 53 53 54 54 56 57 57 56 56 56 55 55 54 52 51 51 50 50 49 49 49 49 48 48 47 46 46 46 45 45 44 44 43 42 42 42 42 41 39 38 38 39 40 41 42 43 43 44 44 44 44 44 44 43 43
53 54 55 55 54 54 53 53 53 53 53 54 55 55 55 55 54 54 53 53 52 51 50 50 50 49 49 49 49 48 48 47 46 45 45 44 44 43 42 42 41 41 40 40 39 38 37 35 35 35 36 38 39 40 40 41 42 43 43 42 42 42 41
55 55 55 56 56 55 55 54 53 52 52 53 53 53 52 53 52 52 52 51 50 50 49 49 49 49 49 48 48 47 47 45 44 43 43 42 42 41 41 40 40 39 38 37 36 35 34 33 32 32 33 34 36 37 37 39 40 40 41 41 41 40 39
55 55 56 57 57 56 55 55 53 52 52 51 51 51 51 51 51 50 50 50 49 49 49 49 48 48 48 47 46 46 45 44 43 42 41 41 41 40 40 39 38 37 36 35 34 33 33 32 31 31 31 32 34 34 35 36 38 38 38 38 39 39 37
55 55 56 57 57 56 56 54 53 52 51 51 51 50 50 50 49 49 48 48 48 48 49 49 49 48 47 46 45 44 43 41 41 41 40 40 40 39 39 38 36 35 34 33 33 33 32 31 30 30 30 30 31 32 32 34 36 36 35 36 37 37 35
55 56 56 57 56 55 56 54 52 52 51 51 50 50 50 49 49 49 48 48 49 49 49 49 48 46 45 43 43 42 41 40 39 39 39 39 39 38 37 36 35 34 33 33 33 32 31 30 29 28 28 29 30 30 31 33 35 35 34 34 34 34 32
56 55 55 56 55 54 55 54 52 51 51 50 50 50 50 50 50 51 51 51 51 51 49 48 46 44 42 40 40 40 39 39 38 39 38 39 38 37 36 35 34 33 33 33 33 32 30 29 28 28 28 28 29 29 30 32 33 33 33 33 32 31 31
55 54 54 54 54 53 52 52 51 50 50 51 51 51 52 52 52 53 53 52 51 50 48 45 43 42 40 38 37 37 37 37 38 39 38 38 37 36 36 35 34 34 34 33 33 31 30 30 29 28 28 27 28 28 29 30 32 32 32 31 31 30 29
53 52 52 52 52 52 50 50 50 51 52 52 52 53 54 54 53 52 50 49 48 47 44 42 40 39 38 36 35 34 34 36 37 38 37 37 36 35 34 34 34 34 34 34 32 31 31 30 29 29 29 28 28 29 29 29 30 31 31 30 29 29 28
51 51 50 50 50 49 49 49 50 52 53 54 54 54 54 53 51 48 46 45 44 43 42 40 38 37 36 34 33 33 33 35 35 36 36 36 36 34 33 33 34 35 34 33 33 32 32 31 31 31 30 29 29 30 30 30 30 30 30 30 29 28 27
49 49 49 48 48 48 48 50 52 53 54 54 54 52 51 50 48 45 43 42 42 41 39 38 37 35 33 32 32 32 34 35 34 34 35 35 35 34 33 33 34 34 33 33 33 33 32 32 32 32 31 30 30 30 30 30 30 30 30 30 29 28 28
49 48 48 48 48 48 49 51 53 53 53 52 51 49 48 47 45 43 41 40 40 39 38 37 35 33 31 31 31 32 33 34 34 34 34 34 34 34 34 33 33 33 32 32 33 33 33 33 32 31 31 30 30 30 30 30 30 29 30 29 29 28 28
49 48 49 48 48 49 50 51 52 51 50 48 47 46 45 45 44 43 41 39 38 36 36 35 33 31 30 30 30 30 30 31 32 32 33 33 33 33 33 32 32 32 32 33 33 33 33 32 31 30 30 29 29 29 29 29 29 29 29 28 28 28 27
Wind_Direction
304 303 301 300 299 298 298 298 298 298 298 298 299 299 299 299 300 300 301 301 302 302 302 302 302 301 301 301 300 300 299 299 298 298 297 296 295 294 294 293 292 292 292 291 291 291 290 290 289 289 288 287 286 284 283 282 280 279 278 277 275 273 272
303 302 300 299 298 298 297 297 297 298 298 298 299 299 300 300 301 301 302 302 302 302 301 301 301 301 301 301 300 300 299 299 298 298 297 296 295 294 293 292 291 291 291 291 290 289 289 288 288 287 287 287 286 285 284 283 282 281 280 279 278 276 274
302 300 299 298 298 297 297 297 297 298 298 299 299 300 300 301 301 301 301 301 301 301 300 300 300 300 300 300 300 299 299 299 298 297 296 295 294 293 292 291 291 290 290 290 289 289 288 287 287 286 286 285 285 285 285 284 283 282 281 280 280 278 276
301 300 299 298 298 298 297 298 298 298 299 299 300 300 300 300 301 301 300 300 300 300 300 300 300 300 300 299 299 299 299 298 298 297 296 295 293 292 291 290 290 289 289 289 289 289 288 287 286 285 285 285 284 284 285 285 285 284 283 282 281 279 277
301 300 299 299 298 298 298 298 299 299 300 300 300 300 300 300 300 300 299 299 299 300 300 300 300 300 299 299 299 299 298 298 297 296 295 294 293 291 290 289 289 288 288 288 288 288 287 286 286 285 285 284 284 283 283 284 285 285 285 284 282 280 278
301 300 300 299 299 299 299 299 299 299 299 299 299 299 299 299 299 299 299 299 300 300 300 300 300 300 299 299 299 298 297 297 296 295 294 293 292 291 290 289 288 288 287 287 287 287 286 285 285 284 284 283 283 282 282 282 282 283 284 284 283 281 278
301 300 300 299 299 299 299 298 299 299 299 298 298 298 298 299 299 299 299 299 300 300 300 300 300 299 299 299 298 298 297 296 295 294 293 292 291 290 289 288 288 287 287 286 286 285 285 284 284 283 283 282 281 281 281 280 280 279 280 281 281 280 278
301 300 299 299 298 298 298 298 298 298 298 298 299 299 299 299 299 299 299 299 299 300 300 300 300 299 299 298 297 297 296 295 294 293 292 291 290 289 289 288 287 287 286 286 285 285 284 284 283 282 282 281 280 279 279 278 278 278 277 277 278 278 277
300 299 299 299 299 299 299 298 298 298 299 299 299 300 300 299 299 299 299 299 299 299 299 299 299 299 298 297 297 296 295 294 293 292 291 290 290 289 289 288 287 286 285 285 285 284 284 284 283 282 281 280 280 279 278 277 276 276 276 275 275 275 276
299 299 299 299 299 298 298 299 299 300 300 300 300 300 299 299 299 299 299 299 299 299 299 299 299 298 297 297 296 295 294 293 292 292 291 290 290 289 288 287 286 285 284 284 284 284 284 283 283 282 281 280 279 279 278 276 275 274 274 274 274 273 274
299 299 299 298 298 298 299 300 301 301 301 301 300 300 299 300 300 300 301 301 300 300 300 299 298 297 296 295 295 294 293 293 292 291 291 290 290 289 288 287 286 285 284 283 283 283 283 282 282 281 281 280 279 278 277 276 275 274 274 274 274 273 272
298 298 297 297 298 299 300 301 301 301 301 301 300 301 301 301 302 302 302 302 302 301 300 299 297 296 295 294 293 292 292 292 291 290 290 289 289 289 288 287 286 285 284 283 283 282 282 282 281 280 280 279 278 277 276 275 274 274 274 274 274 273 272
296 296 297 297 299 300 300 301 301 300 300 301 301 302 302 303 304 304 304 303 302 301 300 299 297 295 294 293 292 291 290 290 289 289 289 288 288 288 287 286 285 284 284 283 283 282 282 282 280 279 278 278 277 276 275 274 273 273 274 274 273 273 271
296 296 297 298 299 300 300 300 300 300 301 301 302 302 303 304 304 304 304 303 302 301 300 298 297 295 294 293 292 291 289 289 288 288 288 287 287 287 286 285 284 283 283 282 282 282 282 281 280 279 278 277 276 275 275 274 273 272 272 272 272 271 271
296 297 297 298 298 299 299 300 300 300 301 301 302 302 303 304 304 304 303 302 301 300 299 298 297 296 295 294 292 291 290 288 288 287 287 287 286 286 285 285 284 283 282 281 281 281 280 280 280 279 278 277 275 274 274 273 272 271 270 269 269 270 270
296 296 297 297 297 298 298 299 299 300 301 302 303 303 304 304 304 303 303 302 301 300 299 298 298 297 296 294 293 292 290 289 288 288 287 286 286 285 285 284 284 283 281 280 280 279 279 279 279 279 278 277 276 274 273 272 272 270 269 268 268 268 269
296 296 296 296 297 298 298 299 301 302 303 303 304 304 304 304 303 303 302 302 301 300 300 299 298 297 295 294 293 292 291 290 290 289 288 288 287 286 286 285 284 282 281 280 279 278 278 278 278 278 277 276 275 274 273 272 271 270 269 268 267 267 267
295 295 296 297 298 299 300 301 302 303 304 304 304 304 304 304 303 303 302 302 301 300 300 299 298 296 295 294 293 293 292 292 291 291 290 289 288 287 287 286 285 282 281 279 278 277 276 276 276 276 276 275 275 274 273 273 272 271 270 268 267 267 266
295 296 297 298 300 301 302 303 304 304 305 305 305 305 304 304 303 303 302 301 301 300 299 298 297 296 294 294 294 293 293 293 292 291 291 290 289 289 288 287 284 282 280 278 277 276 275 275 275 274 274 274 273 273 272 272 272 272 271 270 268 268 267
296 297 299 300 302 303 304 305 305 306 306 306 306 305 304 304 303 303 302 301 300 300 299 297 296 295 294 294 294 294 294 293 292 292 291 291 291 290 289 286 284 282 280 278 277 275 274 273 273 273 273 272 272 272 271 271 271 272 272 272 270 269 268
298 299 301 302 304 305 306 306 306 306 306 306 305 304 304 303 303 302 301 300 300 299 298 297 295 295 295 295 295 294 293 293 293 293 293 292 292 290 288 287 285 283 281 279 277 275 274 272 272 271 271 271 271 272 271 271 271 271 271 272 272 271 270
299 301 303 304 306 306 307 307 306 306 306 305 304 304 303 303 302 301 301 300 300 299 297 296 295 295 295 295 294 294 293 293 293 294 293 292 291 289 288 287 286 285 283 280 278 275 274 273 272 272 271 272 272 273 273 272 271 271 271 271 271 271 271
301 302 304 305 306 306 306 306 306 306 305 304 304 303 303 302 302 301 300 300 299 298 297 297 297 297 296 295 294 294 294 294 294 293 292 291 290 289 288 287 286 285 283 281 279 277 275 273 272 272 272 272 273 273 273 273 273 272 271 271 270 270 270
303 304 305 305 305 306 305 305 305 305 304 304 303 303 302 302 301 300 299 298 298 298 299 299 298 297 296 295 294 294 294 294 293 292 291 291 290 289 288 287 285 284 282 281 281 279 278 276 274 273 272 272 272 273 273 274 274 273 272 271 271 270 270
304 304 305 305 305 305 305 305 305 304 304 303 302 302 301 300 299 299 298 298 299 299 300 299 298 296 295 295 295 294 294 293 292 291 291 290 290 288 287 285 284 283 283 282 282 282 281 280 278 275 273 272 272 272 272 273 273 273 273 273 272 271 270
304 304 305 305 305 305 305 305 305 304 303 302 302 301 300 299 299 298 298 299 299 300 299 298 297 296 295 295 294 293 293 292 291 291 291 289 288 287 285 284 284 284 284 284 284 283 283 281 279 276 274 273 272 272 272 272 272 272 273 274 273 272 271
304 305 305 305 305 305 305 305 305 304 303 302 301 300 299 298 299 299 299 300 300 300 298 297 296 295 294 294 293 293 292 292 291 291 289 288 286 285 284 284 285 285 285 285 284 283 281 280 279 277 275 274 273 272 272 272 272 271 272 272 273 273 273
305 305 305 305 305 305 305 306 306 304 303 302 301 300 299 298 298 298 299 299 300 299 297 296 295 295 294 294 293 292 292 291 291 289 287 285 284 283 284 284 285 284 284 284 282 281 280 279 279 277 276 274 273 273 273 272 271 271 271 271 271 272 272
305 305 304 305 305 305 305 306 306 305 304 303 301 300 300 299 299 299 299 299 298 297 295 294 294 294 294 294 293 292 291 290 289 287 284 283 282 282 283 284 284 284 284 283 281 281 281 281 280 279 277 275 273 272 272 271 271 272 272 271 271 272 271
305 305 304 305 305 305 306 306 306 305 303 303 302 302 301 301 300 300 300 299 298 296 295 294 294 293 293 292 291 290 290 289 286 283 281 281 281 282 283 283 283 283 282 281 281 282 282 282 281 279 276 275 273 271 270 270 271 271 272 272 272 272 271
304 304 304 304 305 305 305 306 306 305 303 303 302 302 302 301 301 301 301 300 298 297 296 295 293 292 291 291 289 288 287 285 283 282 281 281 281 282 283 283 283 282 281 281 281 283 283 282 281 279 277 275 274 272 270 270 271 271 272 272 272 272 271
303 303 303 303 304 305 305 306 305 304 303 302 302 302 302 302 302 302 301 300 299 298 297 296 294 292 291 290 289 287 284 282 281 282 282 282 282 282 282 282 282 281 281 282 283 283 282 282 281 280 278 277 275 274 272 271 271 272 272 272 272 272 271
302 302 302 303 304 304 305 305 303 302 302 302 302 303 303 303 302 302 301 300 300 299 298 297 295 293 292 291 290 287 284 281 281 281 281 282 281 281 280 279 279 280 281 282 282 282 282 282 281 280 278 277 275 274 272 271 271 271 271 271 271 271 270
302 302 302 302 303 304 304 303 302 301 302 302 303 303 303 302 301 301 301 300 300 299 298 297 295 294 293 292 290 287 285 284 282 281 279 279 279 279 278 277 277 278 279 280 280 280 281 281 280 279 278 276 274 272 271 270 270 269 269 269 269 268 268
302 302 302 302 303 303 302 302 301 301 302 302 302 302 301 300 300 300 300 299 299 299 298 296 294 293 292 291 290 288 286 285 283 281 279 277 276 276 276 276 276 276 277 277 278 278 279 279 278 278 277 275 273 272 271 270 269 268 268 267 267 266 266
301 301 301 302 303 303 302 301 301 301 301 301 301 301 300 299 299 299 298 298 298 297 296 294 293 293 292 292 291 289 287 285 283 281 279 277 275 274 274 274 274 275 275 275 277 277 278 278 277 277 276 274 273 271 271 270 269 268 267 266 265 265 264